Flag for Germany Weather past 2 weeks in Jena, Thuringia, Germany

Now
57 °F

Clear.


Feels Like: 57 °F
Forecast: 55 / 77 °F
Wind: 5 mph from Northeast

Location: Erfurt-Bindersleben

Current Time: Jul 24, 2014 at 4:41:58 AM

Latest Report: Jul 24, 2014 at 4:20 AM


Visibility: 10 mi

Pressure: 30.01 "Hg

Humidity: 88%

Dew point: 54 °F

Location of JenaLocation

Historic Weather in Jena — Graph

°F

Jena temperature yesterday

Maximum temperature yesterday: 79 °F (at 3:20 PM)
Minimum temperature yesterday: 63 °F (at 4:20 AM)
Average temperature yesterday: 70 °F

Past Weeks' High & Low Weather Summary

 TemperatureHumidityPressure
High88 °F (Jul 19, 3:20 PM)100% (Jul 9, 3:50 AM)30.21 "Hg (Jul 9, 3:50 AM)
Low52 °F (Jul 9, 7:50 AM)25% (Jul 19, 6:20 PM)29.59 "Hg (Jul 9, 6:50 AM)
Average68 °F69%29.96 "Hg
* Reported Jul 9 2:20 AM — Jul 24 2:50 AM, Jena, Weather by CustomWeather, © 2014

Note: Actual official high and low records may vary slightly from our data, if they occured in-between our weather recording intervals... More about our weather records

Advertising

Jena weather history for previous 24 hours

 ConditionsComfort  
Time TempWeatherWind HumidityBarometerVisibility
2:50 AM
Jul 24
61 °FClear.5 mph77%30.01 "Hg10 mi
2:20 AM63 °FClear.5 mph73%30.01 "Hg10 mi
1:50 AM63 °FClear.6 mph73%30.01 "Hg10 mi
1:20 AM63 °FClear.7 mph73%30.01 "Hg10 mi
12:50 AM63 °FClear.6 mph73%30.01 "Hg10 mi
12:20 AM64 °FClear.6 mph68%30.04 "Hg10 mi
11:50 PM
Jul 23
66 °FClear.5 mph60%30.04 "Hg10 mi
11:20 PM66 °FClear.5 mph60%30.04 "Hg10 mi
10:50 PM66 °FClear.5 mph56%30.04 "Hg10 mi
10:20 PM68 °FClear.5 mph53%30.01 "Hg10 mi
9:50 PM68 °FSunny.8 mph53%30.04 "Hg10 mi
9:20 PM70 °FSunny.5 mph46%30.01 "Hg10 mi
8:50 PM73 °FSunny.6 mph44%30.01 "Hg10 mi
8:20 PM75 °FSunny.9 mph39%30.01 "Hg10 mi
7:50 PM77 °FSunny.13 mph34%30.01 "Hg10 mi
7:20 PM77 °FSunny.10 mph34%30.01 "Hg10 mi
6:50 PM77 °FSunny.14 mph39%30.04 "Hg10 mi
6:20 PM77 °FSunny.13 mph39%30.04 "Hg10 mi
5:50 PM77 °FSunny.13 mph39%30.04 "Hg10 mi
5:20 PM77 °FSunny.15 mph42%30.04 "Hg10 mi
4:50 PM77 °FScattered clouds.13 mph42%30.04 "HgN/A
4:20 PM77 °FScattered clouds.14 mph44%30.04 "HgN/A
3:50 PM79 °FSunny.12 mph37%30.04 "Hg10 mi
3:20 PM79 °FSunny.13 mph37%30.04 "Hg10 mi
10:50 AM72 °FSunny.7 mph65%30.09 "Hg10 mi
9:50 AM70 °FSunny.7 mph69%30.09 "Hg10 mi
7:50 AM66 °FSunny.6 mph73%30.09 "Hg10 mi
7:20 AM64 °FSunny.6 mph78%30.09 "Hg10 mi
6:50 AM64 °FSunny.5 mph78%30.09 "Hg10 mi
6:20 AM63 °FClear.5 mph83%30.09 "Hg10 mi
5:50 AM63 °FClear.3 mph83%30.09 "Hg10 mi
5:20 AM63 °FClear.2 mph83%30.09 "Hg10 mi
4:50 AM63 °FClear.5 mph83%30.09 "Hg10 mi
4:20 AM63 °FClear.6 mph83%30.09 "Hg10 mi
Weather by CustomWeather, © 2014

See weather overviewHow to use our weather pages